Location: Passau
(48.5830°N, 13.4830°E)
Time: 21:21:27
(UTC+02:00)

S-56A Canister/Altair - Pass Details

Date: 19 May 2024
Orbit: 637 x 2489 km, 38.9° (Epoch: 16 June)

Event Time Altitude Azimuth Distance (km) Brightness Sun altitude
Rises 10:56:42 0° 257° (WSW) 4,879 11.4 51.8°
Reaches altitude 10° 11:00:37 10° 250° (WSW) 3,573 10.8 52.3°
Maximum altitude 11:08:20 38° 187° (S) 1,587 10.1 53.3°
Drops below altitude 10° 11:13:45 10° 120° (ESE) 2,493 10.9 54.0°
Sets 11:16:02 0° 112° (ESE) 3,269 11.3 54.2°
